TimeCST,TemperatureF,Dew PointF,Humidity,Sea Level PressureIn,VisibilityMPH,Wind Direction,Wind SpeedMPH,Gust SpeedMPH,PrecipitationIn,Events,Conditions,WindDirDegrees,DateUTC
12:15 AM,8.6,-2.2,62,30.26,10.0,NW,23.0,29.9,N/A,,Clear,310,2013-01-20 06:15:00
12:35 AM,8.6,-2.2,62,30.26,10.0,WNW,18.4,-,N/A,,Partly Cloudy,300,2013-01-20 06:35:00
12:55 AM,8.6,-2.2,62,30.28,10.0,WNW,13.8,-,N/A,,Partly Cloudy,300,2013-01-20 06:55:00
1:15 AM,6.8,-2.2,67,30.28,10.0,WNW,20.7,28.8,N/A,,Clear,300,2013-01-20 07:15:00
1:35 AM,6.8,-2.2,67,30.28,10.0,WNW,19.6,23.0,N/A,,Clear,300,2013-01-20 07:35:00
1:55 AM,6.8,-2.2,67,30.29,10.0,NW,15.0,23.0,N/A,,Clear,310,2013-01-20 07:55:00
2:15 AM,6.8,-2.2,67,30.30,10.0,NW,18.4,23.0,N/A,,Clear,310,2013-01-20 08:15:00
2:35 AM,6.8,-2.2,67,30.31,10.0,WNW,17.3,-,N/A,,Clear,300,2013-01-20 08:35:00
2:55 AM,6.8,-2.2,67,30.31,10.0,NW,19.6,23.0,N/A,,Clear,310,2013-01-20 08:55:00
3:15 AM,6.8,-4.0,61,30.32,10.0,NW,16.1,19.6,N/A,,Clear,310,2013-01-20 09:15:00
3:35 AM,6.8,-2.2,67,30.31,10.0,NW,16.1,-,N/A,,Clear,310,2013-01-20 09:35:00
3:55 AM,6.8,-2.2,67,30.30,10.0,WNW,17.3,21.9,N/A,,Clear,300,2013-01-20 09:55:00
4:15 AM,5.0,-5.8,61,30.31,10.0,NW,15.0,21.9,N/A,,Partly Cloudy,320,2013-01-20 10:15:00
4:35 AM,5.0,-4.0,66,30.31,10.0,NW,15.0,-,N/A,,Clear,310,2013-01-20 10:35:00
4:55 AM,5.0,-5.8,61,30.30,10.0,NW,12.7,-,N/A,,Clear,310,2013-01-20 10:55:00
5:15 AM,5.0,-5.8,61,30.30,10.0,NW,13.8,-,N/A,,Partly Cloudy,310,2013-01-20 11:15:00
5:35 AM,5.0,-4.0,66,30.30,10.0,NW,13.8,-,N/A,,Mostly Cloudy,320,2013-01-20 11:35:00
5:55 AM,5.0,-5.8,61,30.31,10.0,NW,12.7,-,N/A,,Scattered Clouds,320,2013-01-20 11:55:00
6:15 AM,5.0,-4.0,66,30.32,10.0,NW,15.0,-,N/A,,Scattered Clouds,310,2013-01-20 12:15:00
6:35 AM,5.0,-5.8,61,30.30,10.0,NW,10.4,-,N/A,,Mostly Cloudy,320,2013-01-20 12:35:00
6:55 AM,5.0,-5.8,61,30.31,10.0,NNW,10.4,-,N/A,,Overcast,330,2013-01-20 12:55:00
7:15 AM,5.0,-4.0,66,30.33,10.0,NW,12.7,-,N/A,,Overcast,310,2013-01-20 13:15:00
7:35 AM,6.8,-4.0,61,30.33,10.0,NW,11.5,-,N/A,,Overcast,310,2013-01-20 13:35:00
7:55 AM,6.8,-4.0,61,30.33,10.0,NW,10.4,-,N/A,,Overcast,310,2013-01-20 13:55:00
8:15 AM,6.8,-4.0,61,30.33,10.0,WNW,10.4,-,N/A,,Overcast,290,2013-01-20 14:15:00
8:35 AM,6.8,-4.0,61,30.35,10.0,WNW,11.5,-,N/A,,Overcast,300,2013-01-20 14:35:00
8:55 AM,6.8,-2.2,67,30.35,5.0,WNW,11.5,-,N/A,,Overcast,300,2013-01-20 14:55:00
9:15 AM,6.8,-0.4,72,30.36,5.0,WNW,10.4,-,N/A,,Overcast,300,2013-01-20 15:15:00
9:35 AM,8.6,-2.2,62,30.37,5.0,NW,9.2,-,N/A,,Overcast,310,2013-01-20 15:35:00
9:55 AM,8.6,-0.4,67,30.37,3.0,NW,10.4,-,N/A,,Overcast,310,2013-01-20 15:55:00
10:15 AM,8.6,-0.4,67,30.37,2.5,NW,11.5,-,N/A,,Overcast,310,2013-01-20 16:15:00
10:35 AM,8.6,1.4,73,30.37,4.0,NW,10.4,-,N/A,,Overcast,310,2013-01-20 16:35:00
10:55 AM,8.6,-0.4,67,30.39,5.0,NW,10.4,-,N/A,,Mostly Cloudy,310,2013-01-20 16:55:00
11:15 AM,10.4,1.4,67,30.39,2.5,WNW,11.5,-,N/A,,Mostly Cloudy,300,2013-01-20 17:15:00
11:35 AM,10.4,1.4,67,30.38,6.0,NW,11.5,-,N/A,,Mostly Cloudy,310,2013-01-20 17:35:00
12:15 PM,10.4,1.4,67,30.37,4.0,NW,12.7,16.1,N/A,,Overcast,310,2013-01-20 18:15:00
12:35 PM,10.4,1.4,67,30.36,4.0,NW,12.7,-,N/A,,Mostly Cloudy,310,2013-01-20 18:35:00
12:55 PM,12.2,1.4,62,30.35,4.0,NW,12.7,-,N/A,,Overcast,310,2013-01-20 18:55:00
1:15 PM,14.0,1.4,57,30.34,10.0,NW,11.5,-,N/A,,Overcast,310,2013-01-20 19:15:00
1:35 PM,12.2,1.4,62,30.33,10.0,WNW,12.7,17.3,N/A,,Overcast,300,2013-01-20 19:35:00
1:55 PM,12.2,1.4,62,30.33,10.0,WNW,15.0,-,N/A,,Overcast,290,2013-01-20 19:55:00
2:15 PM,14.0,1.4,57,30.33,10.0,WNW,16.1,-,N/A,,Overcast,300,2013-01-20 20:15:00
2:35 PM,14.0,1.4,57,30.32,10.0,WNW,15.0,19.6,N/A,,Overcast,290,2013-01-20 20:35:00
2:55 PM,15.8,1.4,53,30.32,10.0,West,12.7,-,N/A,,Overcast,280,2013-01-20 20:55:00
3:15 PM,15.8,1.4,53,30.32,9.0,WNW,13.8,-,N/A,,Overcast,290,2013-01-20 21:15:00
3:35 PM,15.8,1.4,53,30.31,9.0,WNW,11.5,-,N/A,,Overcast,290,2013-01-20 21:35:00
3:55 PM,15.8,3.2,58,30.31,10.0,WNW,13.8,-,N/A,,Overcast,290,2013-01-20 21:55:00
4:15 PM,15.8,3.2,58,30.30,10.0,WNW,10.4,-,N/A,,Overcast,300,2013-01-20 22:15:00
4:35 PM,15.8,3.2,58,30.30,10.0,West,11.5,-,N/A,,Overcast,280,2013-01-20 22:35:00
4:55 PM,15.8,3.2,58,30.30,10.0,West,12.7,-,N/A,,Overcast,280,2013-01-20 22:55:00
5:15 PM,15.8,1.4,53,30.29,10.0,WNW,15.0,-,N/A,,Overcast,300,2013-01-20 23:15:00
5:35 PM,14.0,3.2,62,30.29,10.0,WNW,12.7,-,N/A,,Overcast,290,2013-01-20 23:35:00
5:55 PM,14.0,3.2,62,30.29,10.0,WNW,13.8,-,N/A,,Overcast,290,2013-01-20 23:55:00
6:15 PM,14.0,1.4,57,30.29,10.0,WNW,17.3,-,N/A,,Overcast,290,2013-01-21 00:15:00
6:35 PM,12.2,1.4,62,30.29,10.0,WNW,16.1,23.0,N/A,,Overcast,300,2013-01-21 00:35:00
6:55 PM,12.2,1.4,62,30.29,10.0,WNW,13.8,18.4,N/A,,Overcast,290,2013-01-21 00:55:00
7:15 PM,12.2,3.2,67,30.29,7.0,WNW,17.3,23.0,N/A,,Overcast,300,2013-01-21 01:15:00
7:35 PM,10.4,-0.4,62,30.29,10.0,WNW,19.6,28.8,N/A,,Overcast,300,2013-01-21 01:35:00
7:55 PM,8.6,-2.2,62,30.29,10.0,WNW,16.1,-,N/A,,Mostly Cloudy,300,2013-01-21 01:55:00
8:15 PM,8.6,-2.2,62,30.29,10.0,WNW,13.8,-,N/A,,Clear,300,2013-01-21 02:15:00
8:35 PM,8.6,-2.2,62,30.28,10.0,WNW,18.4,21.9,N/A,,Clear,300,2013-01-21 02:35:00
8:55 PM,8.6,-4.0,57,30.28,10.0,WNW,15.0,-,N/A,,Clear,300,2013-01-21 02:55:00
9:15 PM,6.8,-2.2,67,30.28,10.0,WNW,13.8,19.6,N/A,,Clear,300,2013-01-21 03:15:00
9:35 PM,6.8,-2.2,67,30.28,10.0,WNW,15.0,23.0,N/A,,Partly Cloudy,300,2013-01-21 03:35:00
9:55 PM,6.8,-2.2,67,30.28,10.0,WNW,23.0,26.5,N/A,,Mostly Cloudy,300,2013-01-21 03:55:00
10:15 PM,6.8,-2.2,67,30.29,10.0,WNW,15.0,21.9,N/A,,Overcast,300,2013-01-21 04:15:00
10:35 PM,6.8,-5.8,56,30.29,10.0,WNW,18.4,23.0,N/A,,Scattered Clouds,300,2013-01-21 04:35:00
10:55 PM,6.8,-5.8,56,30.29,3.0,WNW,23.0,27.6,N/A,,Mostly Cloudy,300,2013-01-21 04:55:00
11:15 PM,5.0,-5.8,61,30.29,10.0,WNW,19.6,27.6,N/A,,Mostly Cloudy,300,2013-01-21 05:15:00
11:35 PM,3.2,-5.8,66,30.29,10.0,NW,17.3,24.2,N/A,,Mostly Cloudy,310,2013-01-21 05:35:00
11:55 PM,3.2,-5.8,66,30.29,10.0,NW,19.6,24.2,N/A,,Scattered Clouds,310,2013-01-21 05:55:00